Location: Agua Dulce
(10.4560°N, 66.6966°W)
Time: 00:26:19
(UTC+00:00)

Daily predictions for brighter satellites

Satellite Brightness Start Highest point End
(mag) Time Altitude Azimuth Time Altitude Azimuth Time Altitude Azimuth
Cosmos 1805 3.2 00:01:02 10° N 00:04:36 50° E 00:05:14 43° ESE
Cosmos 1697 Rocket 3.5 00:00:16 10° N 00:05:11 31° ENE 00:06:31 28° E
NATO 3D Rocket 4.0 00:02:21 10° W 00:06:54 50° NNW 00:11:37 12° ENE
DELTA 2 DEB (DPAF) 3.8 00:04:48 10° NNE 00:09:00 81° ESE 00:13:09 10° S
Cosmos 44 Rocket 3.0 00:04:34 10° NNW 00:09:16 86° ENE 00:11:18 33° SSE
SWIFT 3.9 00:08:26 10° SSW 00:10:16 19° S 00:10:16 19° S
SPOT 1/Viking Rocket 3.4 00:09:07 26° SSE 00:12:03 71° ENE 00:17:09 10° N
Cosmos 1805 Rocket 4.4 00:09:32 10° NNW 00:13:49 51° W 00:17:56 11° SSW
SL-8 R/B 3.7 00:09:33 10° NNW 00:14:15 67° NE 00:15:32 45° ESE
Ariane H10+ 4.3 00:07:08 10° SW 00:14:28 41° SSE 00:22:07 27° ESE
Cosmos 1674 3.2 00:17:37 39° NE 00:17:37 39° NE 00:20:03 10° NNE
Cosmos 1980 Rocket 3.8 00:19:15 10° NNE 00:22:11 18° ENE 00:22:11 18° ENE
FALCON 9 R/B 3.7 00:19:55 10° NNW 00:24:18 36° NE 00:28:29 26° E
Cosmos 1666 Rocket 3.8 00:20:43 10° N 00:24:33 49° ENE 00:24:33 49° ENE
ARIANE 5 R/B 3.4 00:13:56 10° W 00:25:23 33° SSW 00:26:14 31° S
Haruka 4.4 00:12:30 10° WNW 00:28:49 45° SW 00:31:16 30° S
Cosmos 2026 Rocket 4.4 00:22:41 10° SSW 00:28:51 61° W 00:34:55 10° N
Resurs 01 Rocket 1.9 00:31:19 51° NE 00:31:19 51° NE 00:35:09 10° N
FUSE 4.0 00:28:19 10° SW 00:33:18 56° SSE 00:33:18 56° SSE
GPS 2-12 Rocket1 4.4 00:29:36 10° WNW 00:33:39 34° N 00:35:25 25° NNE
Cosmos 2360 4.3 00:29:14 10° NNW 00:34:55 73° WSW 00:37:02 40° S
ATLAS CENTAUR R/B 4.0 00:24:05 10° NNW 00:36:48 86° ENE 00:40:38 40° SSE
SJ-6B 4.4 00:36:42 23° SW 00:37:54 28° W 00:41:01 10° NW
CZ-4B R/B 3.0 00:41:06 64° SSE 00:41:58 89° E 00:47:14 10° NNW
Ariane 3 Deb 3.8 00:39:01 10° WSW 00:40:30 25° WSW 00:40:30 25° WSW
GPS 2-15 Rocket1 3.1 00:39:32 10° WSW 00:44:10 80° WNW 00:44:10 80° WNW
CZ-4 R/B 2.9 00:46:35 28° WSW 00:47:16 30° W 00:50:44 10° NW
Centaur D-1AR AC-39 3.3 00:53:12 10° WNW 00:56:48 38° N 01:01:10 19° ENE
Lacrosse 5 rocket 2.8 00:53:24 10° NNW 00:55:47 34° NW 00:55:47 34° NW
MOS 1-B Rocket 4.2 01:04:12 66° S 01:05:12 81° WSW 01:11:21 10° NNW
Centaur D AC-29 4.5 01:02:23 10° NW 01:08:23 34° NNE 10:47:00 10° SE
USA 59 Rocket 3.9 01:13:06 10° WSW 01:14:29 11° WSW 01:15:56 10° SW
VEP-3 4.1 01:11:58 10° W 01:16:24 25° SW 01:16:24 25° SW
Okean O Rocket 4.3 01:40:18 17° WNW 01:40:18 17° WNW 01:41:43 10° NW
Cosmos 1980 Rocket 4.4 02:01:51 10° NW 02:03:57 20° WNW 02:03:57 20° WNW
SL-16 R/B 4.4 06:43:02 24° ENE 06:43:08 24° ENE 06:47:56 10° NNE
Lacrosse 5 3.9 07:23:06 22° E 07:23:06 22° E 07:25:39 10° ENE
CZ-2C R/B 4.0 07:28:11 10° NNE 07:30:32 29° NE 07:30:32 29° NE
Gbstr 26 Del rocket 4.2 07:52:27 51° NNW 07:52:27 51° NNW 07:58:00 10° NNE
PAYLOAD A 4.2 07:48:45 10° NNE 07:53:37 74° NNE 07:53:37 74° NNE
Iridium 4 Rocket 3.9 07:51:20 10° N 07:54:58 53° N 07:54:58 53° N
Cosmos 1943 Rocket 4.0 07:53:38 17° SE 07:56:34 25° ESE 08:01:05 10° NE
ARIANE 5 R/B 4.3 07:58:05 39° SSE 07:58:07 39° SSE 08:14:54 10° E
Cosmos 1758 Rocket 4.1 08:07:08 51° N 08:07:08 51° N 08:10:27 10° N
GPS 2-17 Rocket1 4.0 08:08:05 39° SE 08:08:05 39° SE 08:11:47 10° E
Aurora 2 Rocket 4.3 08:08:15 28° NW 08:09:40 31° N 08:15:37 10° NE
Thor Agena Rocket 3.4 08:05:36 10° N 08:10:50 75° WNW 08:10:58 75° W
Skynet4D Del rocket 4.4 08:09:46 51° SW 08:12:07 81° SSE 08:20:31 10° ENE
Cosmos 1666 3.9 08:14:01 34° E 08:14:05 34° E 08:17:13 10° NNE
Cosmos 2058 Rocket 3.8 08:13:09 10° NNW 08:16:07 41° NNW 08:16:07 41° NNW
Cosmos 2278 Rocket 2.1 08:21:15 50° SSW 08:22:48 84° WNW 08:28:28 10° NNE
Ariane H10-3 3.1 08:26:51 18° SSE 08:26:51 18° SSE 08:28:09 10° SE
SL-16 R/B 3.5 08:28:07 27° WNW 08:28:07 27° WNW 08:31:49 10° NW
Cosmos 1500 3.3 08:29:09 56° N 08:29:09 56° N 08:31:55 10° N
ARIANE 5 R/B 4.4 08:23:40 30° WSW 08:29:04 36° SSW 08:35:26 10° SE
Ariane H10-3 4.3 08:06:32 10° W 08:30:48 40° SSW 08:35:29 10° SE
SWIFT 3.3 08:35:16 22° NW 08:37:18 39° NNE 08:41:02 10° E
Cosmos 1862 3.8 08:38:08 39° WNW 08:38:08 39° WNW 08:41:08 10° NNW
Cosmos 44 4.0 08:36:21 21° S 08:39:47 58° ESE 08:45:02 10° NNE
H-2A R/B 1.9 08:35:05 10° N 08:40:15 77° WNW 08:43:05 27° SSW
CSL-04 DEB 4.0 08:37:14 10° N 08:40:59 78° W 08:41:58 47° SSW
Ariane H10 3.6 08:39:24 33° WSW 08:41:12 42° SSW 08:44:28 10° ESE
Cosmos 1271 Rocket 4.2 08:42:57 21° NW 08:42:57 21° NW 08:44:41 10° NNW
Cosmos 1603 4.5 08:38:25 10° NW 08:42:49 30° W 08:42:49 30° W
H-2A R/B 3.2 08:45:30 16° NW 08:46:28 19° N 08:49:58 10° NE
Cosmos 1939 Rocket 2.9 08:43:43 10° NNE 08:47:37 75° ESE 08:50:14 20° S
Cosmos 192 4.4 08:44:54 19° S 08:48:28 78° ESE 08:53:21 10° NNE
Cosmos 2084 3.4 08:47:20 35° SW 08:49:05 74° WNW 08:53:19 10° NNE
Cosmos 2151 3.5 08:45:22 10° S 08:49:24 55° E 08:53:26 10° NNE
Meteor 2-15 4.5 08:48:18 19° SSW 08:52:36 57° W 08:58:31 10° N
NOSS 3-1 (C) 2.9 08:52:37 31° WSW 08:54:27 50° WNW 08:59:00 10° N
ARIANE 5 R/B 2.4 08:53:53 33° SW 08:55:07 51° S 09:05:55 10° E
Stardust Del rocket 4.0 08:53:13 17° WNW 08:56:16 80° NNE 09:04:00 10° ESE
Cosmos 1802 Rocket 4.0 08:51:32 10° S 08:57:53 76° W 09:04:18 10° N
Cosmos 1484 Rocket 3.1 08:57:47 10° N 09:01:21 42° WNW 09:03:02 25° SW
ARIANE 5 R/B 3.4 08:59:15 10° NNE 09:04:02 47° ESE 09:08:50 10° S
Lacrosse 5 3.3 09:02:20 18° W 09:04:11 22° WNW 09:08:04 10° N
ARIANE 5 R/B 4.4 09:00:35 18° WSW 09:06:31 31° SSW 09:09:55 10° SE
Meteor 2-14 Rocket 4.3 09:00:48 10° N 09:06:50 74° W 09:12:53 10° S
NOSS 3-1 (A) 2.9 09:07:13 10° SSW 09:11:46 73° ESE 09:16:28 10° NNE
Cosmos 1076 Rocket 3.6 09:10:45 10° S 09:14:57 78° E 09:19:08 10° N
USA 305 2.1 09:13:49 19° SW 09:16:07 69° WNW 09:19:02 10° NNE
Meteor 2-21 4.4 09:10:15 10° N 09:16:17 74° W 09:22:22 10° S
Cosmos-2242 4.0 09:14:35 10° NW 09:18:09 26° W 09:21:42 10° SSW
USA 290 3.1 09:17:21 18° SW 09:19:03 30° WNW 09:21:55 10° NNW
ATLAS 3B R/B 2.8 09:13:14 10° SSW 09:19:44 76° ESE 09:26:45 10° NNE
Ariane H10+ 3.5 09:17:30 13° SW 09:20:56 35° SSE 09:36:31 10° E
Meteor 1-26 Rocket 4.1 09:18:06 10° N 09:23:27 80° W 09:28:52 10° S
Cosmos 1953 Rocket 3.9 09:20:16 10° SSW 09:24:19 41° W 09:28:23 10° NNW
Cosmos 1782 4.1 09:21:55 10° NW 09:24:40 19° W 09:27:16 11° SW
GPS 2-14 Rocket1 4.4 09:22:59 10° NW 09:24:54 16° N 09:26:49 10° NNE
GPS 2-15 Rocket1 3.5 09:21:24 10° W 09:25:51 45° SSW 09:30:20 10° SE
FUSE 4.4 09:22:23 10° WNW 09:27:43 66° NNE 09:33:02 10° ESE
GOES 2 Rocket 3.9 09:24:18 10° NW 09:28:57 64° NNE 09:34:54 10° ESE
ISS -2.7 09:27:28 13° WSW 09:29:57 30° NW 09:32:55 10° NNE
Cosmos 1833 Rocket 3.6 09:25:18 10° N 09:30:48 55° ENE 09:36:17 10° SSE
Ariane H10 3.8 09:27:00 11° WSW 09:32:38 23° S 09:35:26 10° SE
H-2A R/B 3.5 09:35:55 10° NNW 09:38:36 24° WNW 09:41:17 10° SW
Cosmos 1943 Rocket 3.4 09:35:38 10° WSW 09:40:01 23° WNW 09:44:26 10° NNW
ARIANE 5 R/B 4.1 09:40:37 10° SW 09:43:37 37° SSE 09:55:12 10° E
CZ-3 R/B 4.2 09:35:55 10° W 09:52:35 20° SW 10:00:09 10° S
